Regional Weather Roundup
Issued by NWS

Home | Current Version | Previous Version | Graphics & Text | Print | Product List | Glossary On
Versions: 1 2 3 4 5 6 7 8 9 10 11 12 13 14 15 16 17 18 19 20 21 22 23 24 25 26 27 28 29 30 31 32 33 34 35 36 37 38 39 40 41 42 43 44 45 46 47 48 49 50
000
ASUS44 KMEG 291610
RWRTN
TENNESSEE HOURLY STATE WEATHER ROUNDUP
NATIONAL WEATHER SERVICE MEMPHIS TN
1100 AM CDT WED JUL 29 2015

TNZ002-004-019-021-049-052-054-088>092-291700-
WEST TENNESSEE

CITY           SKY/WX    TMP DP  RH WIND       PRES   REMARKS
MEMPHIS INTL   PTSUNNY   94  75  54 NW9       30.04F HX 105
NWS MEMPHIS      N/A     89 N/A N/A MISG        N/A
JACKSON        SUNNY     94  77  57 MISG      30.04S HX 108
DYERSBURG        N/A    N/A N/A N/A MISG        N/A
PARIS          SUNNY     86  77  74 CALM      30.05S HX  97
LEXINGTON      MOSUNNY   90  77  66 VRB3      30.04S HX 102
$$

TNZ008-025-027-028-033-062-065-066-291700-
NORTH MIDDLE TENNESSEE

CITY           SKY/WX    TMP DP  RH WIND       PRES   REMARKS
NASHVILLE      MOSUNNY   85  72  65 SW6       30.05S HX  91
CLARKSVILLE    CLOUDY    74  71  91 CALM      30.03F
SMYRNA         CLOUDY    88  75  65 NW7       30.06R HX  97
CROSSVILLE     PTSUNNY   84  72  67 NE5       30.10F
$$

TNZ061-075-076-078-094-096-097-291700-
SOUTH MIDDLE TENNESSEE

CITY           SKY/WX    TMP DP  RH WIND       PRES   REMARKS
FAYETTEVILLE   PTSUNNY   84  72  65 W6        30.07S
TULLAHOMA      PTSUNNY   86  70  58 NW5       30.08S HX  90
WINCHESTER     SUNNY     86  72  62 N5        30.06F HX  92
MCMINNVILLE    SUNNY     86  77  74 NE5       30.07S HX  97
COLUMBIA       PTSUNNY   75  75 100 E12       30.08R
SHELBYVILLE    CLOUDY    86  75  70 W7        30.08R HX  95
$$

TNZ017-018-042-046-047-291700-
NORTHEAST TENNESSEE

CITY           SKY/WX    TMP DP  RH WIND       PRES   REMARKS
TRI CITIES     MOSUNNY   83  70  64 W3        30.08S
ELIZABETHTON   SUNNY     82  72  69 NW5       30.08S
$$

TNZ012-013-036-069-073-074-291700-
CENTRAL EAST TENNESSEE

CITY           SKY/WX    TMP DP  RH WIND       PRES   REMARKS
KNOXVILLE      MOSUNNY   86  72  62 NE5       30.04S HX  92
OAK RIDGE      SUNNY     88  72  58 VRB3      30.06S HX  94
GATLINBURG       N/A     86  72  62 NW3       30.04S HX  92
MORRISTOWN       N/A     84  72  65 CALM      30.07S
$$

TNZ083-085-099-291700-
SOUTHEAST TENNESSEE

CITY           SKY/WX    TMP DP  RH WIND       PRES   REMARKS
CHATTANOOGA    PTSUNNY   88  72  58 N5        30.04R HX  94
$$

SKY/WX REPORTED AS FAIR MEANS FEW OR NO CLOUDS BELOW
12 THOUSAND FEET.



USA.gov is the U.S. government's official web portal to all federal, state and local government web resources and services.